HULIANWANG DIGUI-121 (67061 NORAD) Tracking and Keplerian Element Data

This shows tracking and keplerian element data for the satellite.

Feedback or suggestion? Click here.




ElementValue
Catalog67061
NameHULIANWANG DIGUI-121
Epoch Orbit54
Epoch Day349.71692468
Epoch Year2025
RAAN359.6606
Inclination50.0012
Eccentricity0.0013268
Argument of Perigee256.3366
Mean Anonmoly103.6071
Mean Motion14.25729079
Decay Rate-1E-08
L11 67061U 25295C 25349.71692468 -.00000001 00000+0 66638-4 0 9993
L22 67061 50.0012 359.6606 0013268 256.3366 103.6071 14.25729079 549



Live tracking and technical data element details for HULIANWANG DIGUI-121 (NORAD 67061). HULIANWANG DIGUI-121 can be tracked NOW for your location showing map with azimuth and elevation plus other details from your city location.







IsCatalogInMostPopularTable: catalog: 67061, numindb: 41
Update: records affected: 1



GetName: 67061 HULIANWANG DIGUI-121

Hit Count: updated at: Tue, 17 Feb 2026 12:37:33 GMT